Cancun, Mexico

8:17 PM on November 20, 2017 (GMT +0000)
Cancun International

Weather History for MMUN - May, 2013

Change the Weather History Date:

Thursday, May 16, 2013

  Actual Average Record
Temperature  
Mean Temperature 80 °F -  
Max Temperature 86 °F 88 °F 95 °F (2006)
Min Temperature 73 °F 74 °F 64 °F (2001)
Cooling Degree Days 14    
Growing Degree Days 30 (Base 50)    
Moisture  
Dew Point 72 °F    
Average Humidity 75    
Maximum Humidity 89    
Minimum Humidity 62    
Precipitation  
Precipitation 0.00 in - - ()
Sea Level Pressure  
Sea Level Pressure 29.97 in    
Wind  
Wind Speed 7 mph ()    
Max Wind Speed 17 mph    
Max Gust Speed -    
Visibility 7.0 miles    
Events      
Averages and records for this station are not official NWS values.
T = Trace of Precipitation, MM = Missing Value Source: Averaged Metar Reports

Daily Weather History Graph

Daily Weather History Graph

Search for Another Location

Airport or City:

Trip Planner

Search our weather history database for the weather conditions in past years. The results will help you decide how hot, cold, wet, or windy it might be!

Date:

Astronomy

May. 16, 2013 Rise Set
Actual Time 6:09 AM CDT 7:18 PM CDT
Civil Twilight 5:45 AM CDT 7:42 PM CDT
Nautical Twilight 5:17 AM CDT 8:10 PM CDT
Astronomical Twilight 4:47 AM CDT 8:40 PM CDT
Moon 11:29 AM CDT (5/16) No Moon Set
Length of Visible Light 13h 57m
Length of Day
13h 09m
Waxing Crescent, 36% of the Moon is Illuminated
May 16
Waxing Crescent
May 17
First Quarter
May 24
Full
May 31
Last Quarter
Jun 8
New

Hourly Weather History & Observations

Time (CDT) Temp. Heat Index Dew Point Humidity Pressure Visibility Wind Dir Wind Speed Gust Speed Precip Events Conditions
12:45 AM 78.8 °F - 71.6 °F 78% 29.98 in 7.0 mi ESE 6.9 mph - N/A   Clear
1:44 AM 78.8 °F - 71.6 °F 78% 29.99 in 7.0 mi ESE 5.8 mph - N/A   Clear
2:43 AM 77.0 °F - 71.6 °F 83% 29.96 in 7.0 mi ESE 5.8 mph - N/A   Partly Cloudy
3:46 AM 77.0 °F - 71.6 °F 83% 29.94 in 7.0 mi East 5.8 mph - N/A   Scattered Clouds
4:45 AM 75.2 °F - 71.6 °F 89% 29.96 in 7.0 mi ESE 5.8 mph - N/A   Scattered Clouds
5:44 AM 73.4 °F - 69.8 °F 88% 29.97 in 7.0 mi ESE 5.8 mph - N/A   Scattered Clouds
6:43 AM 73.4 °F - 69.8 °F 88% 29.97 in 7.0 mi SE 5.8 mph - N/A   Scattered Clouds
7:44 AM 82.4 °F 88.2 °F 73.4 °F 74% 29.98 in 7.0 mi ESE 8.1 mph - N/A   Scattered Clouds
8:49 AM 82.4 °F 86.3 °F 69.8 °F 66% 30.00 in 7.0 mi ESE 8.1 mph - N/A   Mostly Cloudy
9:41 AM 84.2 °F 89.6 °F 71.6 °F 66% 30.01 in 7.0 mi SE 9.2 mph - N/A   Mostly Cloudy
10:41 AM 86.0 °F 91.8 °F 71.6 °F 62% 30.01 in 7.0 mi SE 10.4 mph - N/A   Mostly Cloudy
11:40 AM 86.0 °F 91.8 °F 71.6 °F 62% 30.01 in 7.0 mi SSE 10.4 mph - N/A   Mostly Cloudy
12:44 PM 86.0 °F 91.8 °F 71.6 °F 62% 30.00 in 7.0 mi SSE 11.5 mph - N/A   Mostly Cloudy
1:45 PM 86.0 °F 91.8 °F 71.6 °F 62% 29.99 in 7.0 mi SE 11.5 mph - N/A   Mostly Cloudy
2:41 PM 86.0 °F 93.4 °F 73.4 °F 66% 29.97 in 7.0 mi ESE 10.4 mph - N/A   Mostly Cloudy
3:41 PM 86.0 °F 93.4 °F 73.4 °F 66% 29.96 in 7.0 mi SE 17.3 mph - N/A   Mostly Cloudy
4:43 PM 84.2 °F 90.9 °F 73.4 °F 70% 29.94 in 7.0 mi SE 16.1 mph - N/A   Mostly Cloudy
5:45 PM 84.2 °F 90.9 °F 73.4 °F 70% 29.93 in 7.0 mi SE 17.3 mph - N/A   Mostly Cloudy
6:47 PM 82.4 °F 87.2 °F 71.6 °F 70% 29.90 in 7.0 mi SE 11.5 mph - N/A   Scattered Clouds
7:46 PM 80.6 °F 85.4 °F 73.4 °F 79% 29.95 in 7.0 mi ESE 6.9 mph - N/A   Scattered Clouds
8:42 PM 80.6 °F 85.4 °F 73.4 °F 79% 29.96 in 7.0 mi ESE 6.9 mph - N/A   Scattered Clouds
9:42 PM 78.8 °F - 73.4 °F 83% 29.96 in 7.0 mi ESE 8.1 mph - N/A   Scattered Clouds
10:44 PM 78.8 °F - 73.4 °F 83% 29.98 in 7.0 mi ESE 8.1 mph - N/A   Scattered Clouds
11:46 PM 78.8 °F - 73.4 °F 83% 29.98 in 7.0 mi ESE 8.1 mph - N/A   Scattered Clouds